TimeMDT,TemperatureF,Dew PointF,Humidity,Sea Level PressureIn,VisibilityMPH,Wind Direction,Wind SpeedMPH,Gust SpeedMPH,PrecipitationIn,Events,Conditions,WindDirDegrees,DateUTC
12:53 AM,42.1,24.1,49,29.71,10.0,West,4.6,-,N/A,,Mostly Cloudy,260,2012-10-22 06:53:00
1:53 AM,42.1,25.0,51,29.72,9.0,WSW,3.5,-,N/A,,Overcast,250,2012-10-22 07:53:00
2:53 AM,43.0,26.1,51,29.70,10.0,South,8.1,-,N/A,,Overcast,180,2012-10-22 08:53:00
3:53 AM,43.0,24.1,47,29.69,10.0,South,6.9,-,N/A,,Overcast,180,2012-10-22 09:53:00
5:53 AM,42.1,24.1,49,29.63,10.0,ESE,3.5,-,N/A,,Overcast,120,2012-10-22 11:53:00
6:53 AM,42.1,27.0,55,29.62,10.0,East,5.8,-,N/A,,Overcast,90,2012-10-22 12:53:00
7:53 AM,42.1,30.0,62,29.60,10.0,ESE,8.1,-,N/A,,Partly Cloudy,120,2012-10-22 13:53:00
8:53 AM,43.0,30.0,60,29.58,10.0,Variable,3.5,-,N/A,,Overcast,0,2012-10-22 14:53:00
9:53 AM,44.1,32.0,63,29.58,9.0,West,3.5,-,N/A,,Overcast,280,2012-10-22 15:53:00
10:27 AM,46.4,37.4,71,29.63,4.0,SE,13.8,28.8,0.02,Rain,Light Rain,130,2012-10-22 16:27:00
10:53 AM,46.0,39.9,79,29.60,4.0,SSE,10.4,-,0.07,Rain,Light Rain,160,2012-10-22 16:53:00
11:10 AM,46.4,39.2,76,29.64,2.0,South,8.1,-,0.05,Rain,Rain,170,2012-10-22 17:10:00
11:23 AM,46.4,41.0,81,29.65,8.0,SSW,6.9,-,0.06,Rain,Light Rain,200,2012-10-22 17:23:00
11:44 AM,44.6,39.2,81,29.63,1.8,South,9.2,18.4,0.12,Rain,Heavy Rain,170,2012-10-22 17:44:00
11:53 AM,46.0,41.0,83,29.60,3.0,South,9.2,-,0.14,Rain,Light Rain,180,2012-10-22 17:53:00
12:53 PM,46.9,41.0,80,29.60,4.0,SSW,9.2,-,0.02,Rain,Light Rain,210,2012-10-22 18:53:00
1:25 PM,46.4,41.0,81,29.65,7.0,West,11.5,-,0.02,,Overcast,270,2012-10-22 19:25:00
1:41 PM,46.4,39.2,76,29.65,8.0,West,11.5,-,0.02,,Mostly Cloudy,270,2012-10-22 19:41:00
1:53 PM,48.0,41.0,77,29.60,8.0,West,10.4,-,0.02,,Mostly Cloudy,270,2012-10-22 19:53:00
2:53 PM,46.9,39.0,74,29.60,10.0,WNW,9.2,-,N/A,,Overcast,300,2012-10-22 20:53:00
3:53 PM,46.9,39.9,77,29.59,10.0,North,5.8,-,0.00,,Overcast,350,2012-10-22 21:53:00
4:53 PM,46.9,39.0,74,29.59,10.0,Calm,Calm,-,0.00,,Mostly Cloudy,0,2012-10-22 22:53:00
5:26 PM,46.4,39.2,76,29.69,1.8,SSW,5.8,-,0.04,Rain,Heavy Rain,210,2012-10-22 23:26:00
5:46 PM,42.8,37.4,81,29.71,3.0,West,17.3,31.1,0.09,Rain,Light Rain,260,2012-10-22 23:46:00
5:53 PM,42.1,37.0,82,29.67,8.0,West,16.1,-,0.09,Rain,Light Rain,270,2012-10-22 23:53:00
6:10 PM,42.8,37.4,81,29.71,4.0,West,12.7,19.6,0.01,Rain,Light Rain,280,2012-10-23 00:10:00
6:27 PM,42.8,37.4,81,29.72,10.0,West,5.8,-,0.02,,Overcast,280,2012-10-23 00:27:00
6:53 PM,42.1,37.9,85,29.69,10.0,South,6.9,-,0.02,,Overcast,180,2012-10-23 00:53:00
7:53 PM,44.1,37.0,76,29.68,10.0,South,6.9,-,N/A,,Overcast,170,2012-10-23 01:53:00
8:53 PM,42.1,34.0,73,29.71,10.0,West,18.4,-,N/A,,Overcast,260,2012-10-23 02:53:00
9:53 PM,41.0,30.9,67,29.71,10.0,WSW,15.0,-,0.00,Rain,Light Rain,240,2012-10-23 03:53:00
10:53 PM,39.9,32.0,73,29.72,10.0,South,12.7,19.6,0.00,,Overcast,180,2012-10-23 04:53:00